Location: Carr Mill
(33.2054°N, 85.9439°W)
Time: 01:34:41
(UTC+00:00)

STARLINK-2732 - Pass Details

Date: 23 October 2021
Orbit: 545 x 549 km, 53.1° (Epoch: 07 December)

Event Time Altitude Azimuth Distance (km) Brightness Sun altitude
Rises 11:27:31 0° 211° (SSW) 2,692 6.9 -6.4°
Reaches altitude 10° 11:29:47 10° 206° (SSW) 1,804 6.1 -6.0°
Maximum altitude 11:33:45 51° 130° (SE) 692 4.6 -5.1°
Drops below altitude 10° 11:37:45 10° 54° (NE) 1,815 7.0 -4.3°
Sets 11:40:01 0° 50° (NE) 2,711 7.8 -3.9°
